Preview of NWS' New Version of Forecast
This preview is not operational and should not be used for support decisions.

Regional Weather Roundup (RWR)

Issued by Green Bay, WI (GRB)

                            
000
ASUS43 KGRB 212211
RWRGRB

NORTH-CENTRAL AND NORTHEAST WISCONSIN REGIONAL WEATHER ROUNDUP
NATIONAL WEATHER SERVICE GREEN BAY WI
400 PM CST THU FEB 21 2019

WIZ005-009-010>012-018-019-212300-
NORTH CENTRAL WISCONSIN
  
CITY           SKY/WX    TMP DP  RH WIND       PRES   REMARKS
IRONWOOD       CLOUDY    26  19  74 W8        30.12R                  
MANITOWISH WTR NOT AVBL                                               
ARBOR VITAE    CLOUDY    24  19  80 W8        30.10R                  
EAGLE RIVER    CLOUDY    23  17  75 W7        30.09R                  
LAND O LAKES   FLURRIES  25  20  80 W5        30.09R                  
RHINELANDER    CLOUDY    24  15  68 W9        30.11R                  
PHILLIPS       CLOUDY    23  16  75 NW7       30.12R                  
ANTIGO         FAIR      24  14  66 NW12      30.10R                  
TOMAHAWK       CLOUDY    23  15  70 NW6       30.13R                  
MERRILL        FAIR      25  15  65 NW6       30.13R                  
$$

WIZ013-073-212300-
NORTHEAST WISCONSIN
  
CITY           SKY/WX    TMP DP  RH WIND       PRES   REMARKS
IRON MOUNTAIN  CLOUDY    27  18  69 W9        30.08R                  
MARINETTE      CLOUDY    33  17  51 N8        30.13R                  
OCONTO         FAIR      31  15  51 W8        30.12S                  
$$

WIZ017-030-035>037-045-212300-
CENTRAL WISCONSIN
  
CITY           SKY/WX    TMP DP  RH WIND       PRES   REMARKS
MEDFORD        FAIR      21  13  71 W6        30.12S                  
WAUSAU         FAIR      22  13  68 W12       30.12R                  
MOSINEE        MOSUNNY   21  14  73 NW10G17   30.14R                  
MARSHFIELD     FAIR      22  14  71 N9        30.12S                  
WISC RAPIDS    FAIR      26  11  52 NW9       30.16R                  
STEVENS POINT  FAIR      23  12  63 W6        30.15S                  
WAUPACA        FAIR      29  13  52 W9G18     30.16R                  
SHAWANO        FAIR      33  14  44 W8        30.13R                  
CLINTONVILLE   FAIR      28  13  52 W9        30.14R                  
WAUTOMA        FAIR      28  15  58 W9        30.19R                  
$$

WIZ038-039-048-051-212300-
FOX VALLEY
  
CITY           SKY/WX    TMP DP  RH WIND       PRES   REMARKS
NWS GREEN BAY  FAIR      31  15  52 SW7       30.15R                  
APPLETON       MOSUNNY   27  10  50 W12       30.13R                  
OSHKOSH        FAIR      28  14  55 W6        30.17R                  
FOND DU LAC    FAIR      27  13  55 SW8       30.17R                  
$$

WIZ022-050-052-212300-
EAST CENTRAL WISCONSIN
  
CITY           SKY/WX    TMP DP  RH WIND       PRES   REMARKS
EPHRAIM        CLOUDY    27  16  62 SW5       30.11S                  
WASHINGTON ISL CLOUDY    27  21  80 SW5       30.12R                  
STURGEON BAY   FAIR      30  17  58 SW8       30.12R                  
MANITOWOC      FAIR      28  16  60 W10       30.18R                  
SHEBOYGAN      FAIR      26  14  60 W9        30.17R                  
$$

LMZ563-521-522-541>543-212300-
LAKESHORE
  
STATION/POSITION TIME  TEMP    WIND        PRES    VSBY  WAVE
                       AIR SEA DIR/SP/G                  HT/PER
                 (UTC) (F)     (DEG/KT/KT) (MB)    (MI)  (FT/S)
SHEBOYGAN LKSHOR 2200   27     260/ 10/ 13 1023.0R
KEWAUNEE LKSHORE 2142   28     270/ 12/ 15 1020.0R
NORTHPORT PIER   2140   30     240/  3/  4 1020.0R
MENOMINEE LKSHOR 2148   27 35  150/  6/  8 1019.6R
$$